Station Historical Data
Daily Summary for June 22, 2017 Units:  Metric    English   Both
« Previous Day
Next Day »
Daily Weekly Monthly Yearly Custom
  High: Low: Average:
Temperature: 27.4 °C 12.9 °C 20.4 °C
Dew Point: 20.7 °C 10.8 °C 15.4 °C
Humidity: 87% 46% 74%
Wind Speed: 20.9km/h 0km/h 4km/h
Wind Gust: 35.4km/h - -
Wind- - SW
Pressure: 1015.5 hPa 1008 hPa -
Precipitation: 0 mm    
Historical Graphs
 
 
Tabular Data for June 22, 2017
Time Temperature Dew Point Pressure Wind Wind Speed Wind Gust Humidity Rainfall Rate (Hourly)
00:04 16.6 °C 13.5 °C 1014.8 hPa Calm     82% 0 mm
00:09 16.5 °C 13.4 °C 1014.8 hPa SW 1.6 km/h 4.8 km/h 82% 0 mm
00:14 16.5 °C 13.6 °C 1014.8 hPa SW 1.6 km/h 4.8 km/h 83% 0 mm
00:19 16.4 °C 13.6 °C 1014.8 hPa Calm     83% 0 mm
00:24 16.4 °C 13.5 °C 1014.8 hPa Calm   1.6 km/h 83% 0 mm
00:29 16.3 °C 13.6 °C 1014.8 hPa Calm   1.6 km/h 84% 0 mm
00:34 16.2 °C 13.4 °C 1014.8 hPa Calm     84% 0 mm
00:39 16.1 °C 13.3 °C 1014.8 hPa Calm     84% 0 mm
00:44 15.9 °C 13.4 °C 1014.8 hPa Calm     85% 0 mm
00:49 15.9 °C 13.4 °C 1014.8 hPa Calm     85% 0 mm
00:54 15.8 °C 13.3 °C 1014.8 hPa Calm     85% 0 mm
00:59 15.6 °C 13.1 °C 1014.8 hPa Calm     85% 0 mm
01:04 15.4 °C 13.1 °C 1015.1 hPa Calm     86% 0 mm
01:09 15.3 °C 13 °C 1015.1 hPa Calm     86% 0 mm
01:14 15.3 °C 13.2 °C 1015.1 hPa Calm   3.2 km/h 87% 0 mm
01:19 15.3 °C 13.1 °C 1015.1 hPa Calm   3.2 km/h 87% 0 mm
01:24 15.3 °C 13.1 °C 1015.1 hPa Calm     87% 0 mm
01:29 15.3 °C 13.1 °C 1015.1 hPa Calm     87% 0 mm
01:34 15.2 °C 13.1 °C 1015.1 hPa Calm     87% 0 mm
01:39 15.3 °C 13.1 °C 1015.1 hPa Calm     87% 0 mm
01:44 15.2 °C 12.8 °C 1015.1 hPa Calm     86% 0 mm
01:49 15.2 °C 12.8 °C 1015.1 hPa Calm     86% 0 mm
01:54 15.1 °C 12.7 °C 1015.1 hPa Calm     86% 0 mm
01:59 14.9 °C 12.8 °C 1015.1 hPa Calm     87% 0 mm
02:04 14.8 °C 12.5 °C 1014.8 hPa Calm     86% 0 mm
02:09 14.7 °C 12.3 °C 1014.8 hPa Calm     86% 0 mm
02:14 14.6 °C 12.4 °C 1014.8 hPa Calm     87% 0 mm
02:19 14.4 °C 12.3 °C 1015.1 hPa Calm     87% 0 mm
02:24 14.4 °C 12.3 °C 1015.1 hPa Calm     87% 0 mm
02:29 14.4 °C 12.3 °C 1014.8 hPa Calm     87% 0 mm
02:34 14.4 °C 12.3 °C 1014.8 hPa Calm     87% 0 mm
02:39 14.3 °C 12 °C 1014.8 hPa Calm     86% 0 mm
02:44 14.2 °C 11.9 °C 1014.8 hPa Calm     86% 0 mm
02:49 14.2 °C 11.8 °C 1014.8 hPa Calm     86% 0 mm
02:54 14.2 °C 11.8 °C 1014.8 hPa Calm     86% 0 mm
02:59 14.1 °C 11.7 °C 1014.8 hPa Calm     86% 0 mm
03:04 13.9 °C 11.7 °C 1014.8 hPa Calm     86% 0 mm
03:09 13.9 °C 11.7 °C 1014.8 hPa Calm     86% 0 mm
03:14 13.9 °C 11.7 °C 1014.8 hPa Calm     86% 0 mm
03:19 13.8 °C 11.6 °C 1015.1 hPa Calm     86% 0 mm
03:24 13.9 °C 11.6 °C 1015.1 hPa Calm     86% 0 mm
03:29 13.8 °C 11.6 °C 1015.1 hPa Calm     86% 0 mm
03:34 13.8 °C 11.5 °C 1015.1 hPa Calm     86% 0 mm
03:39 13.9 °C 11.6 °C 1015.1 hPa Calm     86% 0 mm
03:44 13.8 °C 11.3 °C 1015.5 hPa SW 1.6 km/h 1.6 km/h 85% 0 mm
03:49 13.9 °C 11.4 °C 1015.1 hPa SW 1.6 km/h 8 km/h 85% 0 mm
03:54 13.9 °C 11.4 °C 1015.5 hPa SW 1.6 km/h 8 km/h 85% 0 mm
03:59 13.9 °C 11.4 °C 1015.5 hPa Calm   4.8 km/h 85% 0 mm
04:04 13.9 °C 11.4 °C 1015.1 hPa Calm     85% 0 mm
04:09 13.7 °C 11.2 °C 1015.5 hPa Calm     85% 0 mm
04:14 13.6 °C 11.1 °C 1015.1 hPa Calm     85% 0 mm
04:19 13.6 °C 11.1 °C 1015.1 hPa Calm     85% 0 mm
04:24 13.5 °C 11.2 °C 1015.1 hPa Calm     86% 0 mm
04:29 13.5 °C 11 °C 1015.1 hPa Calm     85% 0 mm
04:34 13.5 °C 11 °C 1015.5 hPa Calm     85% 0 mm
04:39 13.4 °C 11.2 °C 1015.5 hPa Calm     86% 0 mm
04:44 13.3 °C 11.1 °C 1015.5 hPa Calm     86% 0 mm
04:49 13.3 °C 11.1 °C 1015.5 hPa Calm     86% 0 mm
04:54 13.3 °C 11 °C 1015.5 hPa Calm     86% 0 mm
04:59 13.2 °C 10.9 °C 1015.1 hPa Calm     86% 0 mm
05:04 13.2 °C 10.9 °C 1015.5 hPa Calm     86% 0 mm
05:09 13.1 °C 10.8 °C 1015.5 hPa Calm     86% 0 mm
05:14 13.1 °C 10.9 °C 1015.5 hPa Calm     87% 0 mm
05:19 12.9 °C 10.8 °C 1015.5 hPa Calm     87% 0 mm
05:24 13 °C 10.9 °C 1015.1 hPa Calm     87% 0 mm
05:29 13.1 °C 11 °C 1015.1 hPa Calm   1.6 km/h 87% 0 mm
05:34 13.2 °C 11.1 °C 1015.1 hPa Calm   3.2 km/h 87% 0 mm
05:39 13.2 °C 10.9 °C 1015.1 hPa Calm   3.2 km/h 86% 0 mm
05:44 13.2 °C 10.9 °C 1015.1 hPa Calm     86% 0 mm
05:49 13.2 °C 10.9 °C 1015.1 hPa Calm     86% 0 mm
05:54 13.2 °C 10.9 °C 1015.1 hPa Calm     86% 0 mm
05:59 13.1 °C 10.8 °C 1015.5 hPa Calm     86% 0 mm
06:04 13.1 °C 10.8 °C 1015.1 hPa Calm     86% 0 mm
06:09 13.1 °C 10.8 °C 1015.5 hPa Calm     86% 0 mm
06:14 13.1 °C 10.8 °C 1015.5 hPa Calm     86% 0 mm
06:19 13.2 °C 10.9 °C 1015.5 hPa Calm     86% 0 mm
06:24 13.4 °C 11.3 °C 1015.1 hPa Calm     87% 0 mm
06:29 13.7 °C 11.6 °C 1015.1 hPa Calm     87% 0 mm
06:34 13.9 °C 11.7 °C 1015.1 hPa Calm     86% 0 mm
06:39 14 °C 11.7 °C 1015.1 hPa Calm   4.8 km/h 86% 0 mm
06:44 14.1 °C 11.8 °C 1015.1 hPa SE 1.6 km/h 6.4 km/h 86% 0 mm
06:49 14.4 °C 11.9 °C 1015.5 hPa Calm   4.8 km/h 85% 0 mm
06:54 14.6 °C 12.1 °C 1015.1 hPa Calm   4.8 km/h 85% 0 mm
06:59 14.9 °C 12.2 °C 1015.1 hPa Calm   3.2 km/h 84% 0 mm
07:04 14.9 °C 12.1 °C 1015.5 hPa Calm   4.8 km/h 83% 0 mm
07:09 15 °C 12.1 °C 1015.5 hPa South 1.6 km/h 1.6 km/h 83% 0 mm
07:14 15 °C 12.1 °C 1015.5 hPa Calm   3.2 km/h 83% 0 mm
07:19 15.1 °C 12.2 °C 1015.5 hPa Calm     83% 0 mm
07:24 15.2 °C 12.3 °C 1015.5 hPa Calm     83% 0 mm
07:29 15.3 °C 12.4 °C 1015.5 hPa SSE 1.6 km/h 6.4 km/h 83% 0 mm
07:34 15.4 °C 12.4 °C 1015.5 hPa SSE 3.2 km/h 8 km/h 82% 0 mm
07:39 15.6 °C 12.5 °C 1015.5 hPa SSE 3.2 km/h 8 km/h 82% 0 mm
07:44 15.7 °C 12.6 °C 1015.5 hPa Calm   3.2 km/h 82% 0 mm
07:49 15.7 °C 12.7 °C 1015.5 hPa Calm   3.2 km/h 82% 0 mm
07:54 15.8 °C 12.8 °C 1015.5 hPa SE 1.6 km/h 4.8 km/h 82% 0 mm
07:59 15.9 °C 12.9 °C 1015.5 hPa SSE 1.6 km/h 6.4 km/h 82% 0 mm
08:04 16.3 °C 13.1 °C 1015.5 hPa SSE 3.2 km/h 6.4 km/h 81% 0 mm
08:09 16.6 °C 13.3 °C 1015.5 hPa South 3.2 km/h 8 km/h 81% 0 mm
08:14 17.1 °C 13.6 °C 1015.5 hPa South 3.2 km/h 8 km/h 80% 0 mm
08:19 17.6 °C 13.9 °C 1015.5 hPa SSW 3.2 km/h 6.4 km/h 79% 0 mm
08:24 17.9 °C 14.1 °C 1015.1 hPa South 4.8 km/h 8 km/h 78% 0 mm
08:29 18.1 °C 14 °C 1015.1 hPa SSW 3.2 km/h 8 km/h 77% 0 mm
08:34 18.3 °C 14.2 °C 1015.1 hPa SSE 6.4 km/h 6.4 km/h 77% 0 mm
08:39 18.6 °C 14.5 °C 1015.1 hPa SSW 4.8 km/h 6.4 km/h 77% 0 mm
08:44 18.9 °C 14.4 °C 1015.1 hPa SW 6.4 km/h 8 km/h 75% 0 mm
08:49 19 °C 14.4 °C 1015.1 hPa SSW 4.8 km/h 8 km/h 75% 0 mm
08:54 19.1 °C 14.8 °C 1015.5 hPa SSE 3.2 km/h 9.7 km/h 76% 0 mm
08:59 19.6 °C 14.6 °C 1015.5 hPa SSW 4.8 km/h 9.7 km/h 73% 0 mm
09:04 20.1 °C 14.7 °C 1015.1 hPa South 4.8 km/h 9.7 km/h 71% 0 mm
09:09 20.3 °C 14.6 °C 1015.1 hPa South 4.8 km/h 9.7 km/h 70% 0 mm
09:14 20.4 °C 14.8 °C 1015.1 hPa South 4.8 km/h 8 km/h 70% 0 mm
09:19 21.1 °C 14.9 °C 1015.1 hPa South 4.8 km/h 9.7 km/h 68% 0 mm
09:24 21.2 °C 14.1 °C 1015.1 hPa WSW 6.4 km/h 14.5 km/h 64% 0 mm
09:29 21.3 °C 13.7 °C 1014.8 hPa WSW 3.2 km/h 11.3 km/h 62% 0 mm
09:34 21.1 °C 13.3 °C 1014.8 hPa WSW 9.7 km/h 12.9 km/h 61% 0 mm
09:39 21 °C 12.9 °C 1014.8 hPa SW 4.8 km/h 11.3 km/h 60% 0 mm
09:44 21.3 °C 13.5 °C 1014.8 hPa South 6.4 km/h 12.9 km/h 61% 0 mm
09:49 21.5 °C 14.2 °C 1014.8 hPa SW 6.4 km/h 9.7 km/h 63% 0 mm
09:54 21.6 °C 13.8 °C 1014.8 hPa WSW 3.2 km/h 11.3 km/h 61% 0 mm
09:59 21.6 °C 14.4 °C 1014.4 hPa SW 4.8 km/h 11.3 km/h 64% 0 mm
10:04 21.6 °C 14.3 °C 1014.1 hPa SSW 4.8 km/h 11.3 km/h 63% 0 mm
10:09 21.5 °C 13.9 °C 1014.4 hPa SSW 4.8 km/h 11.3 km/h 62% 0 mm
10:14 21.5 °C 13.9 °C 1014.4 hPa SSW 8 km/h 16.1 km/h 62% 0 mm
10:19 21.7 °C 13.6 °C 1014.4 hPa SW 6.4 km/h 16.1 km/h 60% 0 mm
10:24 22.1 °C 14.4 °C 1014.4 hPa SSW 1.6 km/h 6.4 km/h 62% 0 mm
10:29 22.1 °C 13.7 °C 1014.1 hPa SW 3.2 km/h 8 km/h 59% 0 mm
10:34 22.1 °C 13.4 °C 1014.1 hPa SW 3.2 km/h 8 km/h 58% 0 mm
10:39 22.1 °C 13.2 °C 1014.1 hPa SSE 3.2 km/h 8 km/h 57% 0 mm
10:44 22.2 °C 13.2 °C 1014.4 hPa SSW 3.2 km/h 9.7 km/h 57% 0 mm
10:49 22.3 °C 12.6 °C 1014.4 hPa SW 4.8 km/h 9.7 km/h 54% 0 mm
10:54 22.8 °C 13.8 °C 1014.4 hPa WNW 1.6 km/h 8 km/h 57% 0 mm
10:59 22.9 °C 12.8 °C 1014.8 hPa West 3.2 km/h 8 km/h 53% 0 mm
11:04 22.7 °C 12.7 °C 1014.8 hPa WSW 3.2 km/h 9.7 km/h 53% 0 mm
11:09 23.4 °C 12.9 °C 1014.4 hPa SE 4.8 km/h 8 km/h 52% 0 mm
11:14 24.1 °C 13.9 °C 1014.1 hPa South 6.4 km/h 9.7 km/h 53% 0 mm
11:19 23.4 °C 12.7 °C 1014.1 hPa SSE 4.8 km/h 11.3 km/h 51% 0 mm
11:24 23.3 °C 12.6 °C 1014.4 hPa South 3.2 km/h 11.3 km/h 51% 0 mm
11:29 23.2 °C 12.4 °C 1014.1 hPa SSW 3.2 km/h 8 km/h 51% 0 mm
11:34 23.7 °C 14.1 °C 1014.4 hPa WSW 3.2 km/h 8 km/h 55% 0 mm
11:39 23.8 °C 12.4 °C 1014.4 hPa West 3.2 km/h 8 km/h 49% 0 mm
11:44 23.8 °C 13.3 °C 1014.4 hPa West 1.6 km/h 8 km/h 52% 0 mm
11:49 24 °C 13.2 °C 1014.4 hPa SW 4.8 km/h 9.7 km/h 51% 0 mm
11:54 23.9 °C 13.2 °C 1014.4 hPa West 4.8 km/h 6.4 km/h 51% 0 mm
11:59 23.6 °C 11.9 °C 1014.8 hPa West 4.8 km/h 16.1 km/h 48% 0 mm
12:04 23.2 °C 11.6 °C 1014.8 hPa West 6.4 km/h 16.1 km/h 48% 0 mm
12:09 23.1 °C 10.8 °C 1015.1 hPa West 6.4 km/h 11.3 km/h 46% 0 mm
12:14 22.8 °C 10.9 °C 1015.1 hPa West 3.2 km/h 8 km/h 47% 0 mm
12:19 22.7 °C 11.2 °C 1015.1 hPa WNW 4.8 km/h 6.4 km/h 48% 0 mm
12:24 22.1 °C 13.4 °C 1015.1 hPa WNW 3.2 km/h 6.4 km/h 58% 0 mm
12:29 20.4 °C 13.7 °C 1014.8 hPa Calm   6.4 km/h 65% 0.25 mm
12:34 19.8 °C 14.4 °C 1014.4 hPa WNW 1.6 km/h 6.4 km/h 71% 0.51 mm
12:39 19.3 °C 15 °C 1014.4 hPa Calm   4.8 km/h 76% 0.76 mm
12:44 19.6 °C 14.4 °C 1014.1 hPa Calm   4.8 km/h 72% 0.76 mm
12:49 19.6 °C 14.8 °C 1014.1 hPa WSW 1.6 km/h 4.8 km/h 74% 0.76 mm
12:54 19.4 °C 14.2 °C 1013.8 hPa SW 1.6 km/h 4.8 km/h 72% 0.76 mm
12:59 19.1 °C 14.2 °C 1013.4 hPa Calm   4.8 km/h 73% 1.02 mm
13:04 18.9 °C 14.6 °C 1013.4 hPa Calm   1.6 km/h 76% 1.27 mm
13:09 18.6 °C 14.3 °C 1013.1 hPa South 1.6 km/h 4.8 km/h 76% 1.52 mm
13:14 18.5 °C 14.8 °C 1012.1 hPa SSE 6.4 km/h 6.4 km/h 79% 1.78 mm
13:19 18.4 °C 14.3 °C 1012.4 hPa SSE 1.6 km/h 8 km/h 77% 1.78 mm
13:24 19.1 °C 14.9 °C 1012.8 hPa SSE 1.6 km/h 8 km/h 77% 1.78 mm
13:29 19.2 °C 14.5 °C 1013.1 hPa Calm   6.4 km/h 74% 1.52 mm
13:34 19.3 °C 14.1 °C 1013.1 hPa South 1.6 km/h 6.4 km/h 72% 1.27 mm
13:39 19.7 °C 15.1 °C 1013.4 hPa Calm   4.8 km/h 75% 1.02 mm
13:44 20 °C 15.7 °C 1013.4 hPa Calm   1.6 km/h 76% 1.02 mm
13:49 20.4 °C 14.7 °C 1013.1 hPa Calm     70% 1.02 mm
13:54 20.3 °C 14.7 °C 1012.8 hPa Calm   4.8 km/h 70% 1.02 mm
13:59 20.4 °C 15.2 °C 1012.8 hPa SSE 6.4 km/h 6.4 km/h 72% 0.76 mm
14:04 20.4 °C 14.7 °C 1012.4 hPa SSE 4.8 km/h 9.7 km/h 70% 0.51 mm
14:09 20.7 °C 15 °C 1011.7 hPa SSE 4.8 km/h 9.7 km/h 70% 0.25 mm
14:14 20.8 °C 15.2 °C 1011.7 hPa SSW 1.6 km/h 9.7 km/h 70% 0 mm
14:19 21.5 °C 15.8 °C 1011.7 hPa South 6.4 km/h 14.5 km/h 70% 0 mm
14:24 22.3 °C 15.6 °C 1011.4 hPa SSE 3.2 km/h 16.1 km/h 66% 0 mm
14:29 22.8 °C 16.1 °C 1011.4 hPa SW 1.6 km/h 16.1 km/h 66% 0 mm
14:34 23.7 °C 16.3 °C 1011.4 hPa SSE 8 km/h 16.1 km/h 63% 0 mm
14:39 24 °C 16.8 °C 1011.4 hPa South 8 km/h 14.5 km/h 64% 0 mm
14:44 24.5 °C 17 °C 1011.1 hPa South 8 km/h 14.5 km/h 63% 0 mm
14:49 24.8 °C 17.3 °C 1011.4 hPa South 6.4 km/h 11.3 km/h 63% 0 mm
14:54 25.2 °C 18.2 °C 1011.1 hPa SSE 3.2 km/h 12.9 km/h 65% 0 mm
14:59 25.2 °C 17.7 °C 1011.1 hPa WSW 6.4 km/h 17.7 km/h 63% 0 mm
15:04 25.6 °C 18 °C 1011.1 hPa SSW 8 km/h 17.7 km/h 63% 0 mm
15:09 25.9 °C 18.3 °C 1010.7 hPa SSW 8 km/h 17.7 km/h 63% 0 mm
15:14 26.3 °C 18.4 °C 1010.7 hPa SSW 8 km/h 14.5 km/h 62% 0 mm
15:19 26.6 °C 18.4 °C 1010.7 hPa SSW 8 km/h 17.7 km/h 61% 0 mm
15:24 27 °C 19.1 °C 1010.7 hPa SSW 9.7 km/h 24.1 km/h 62% 0 mm
15:29 27.3 °C 18.9 °C 1011.1 hPa South 14.5 km/h 27.4 km/h 60% 0 mm
15:34 27.1 °C 18.7 °C 1010.7 hPa SW 12.9 km/h 32.2 km/h 60% 0 mm
15:39 27.2 °C 19.1 °C 1010.7 hPa SW 12.9 km/h 32.2 km/h 61% 0 mm
15:44 27.1 °C 18.9 °C 1010.7 hPa WSW 12.9 km/h 27.4 km/h 61% 0 mm
15:49 26.6 °C 18.4 °C 1010.7 hPa SW 20.9 km/h 24.1 km/h 61% 0 mm
15:54 25.9 °C 18.3 °C 1010.7 hPa SW 20.9 km/h 35.4 km/h 63% 0 mm
15:59 25.7 °C 18.4 °C 1010.7 hPa West 19.3 km/h 32.2 km/h 64% 0 mm
16:04 25.7 °C 18.4 °C 1010.7 hPa SW 16.1 km/h 32.2 km/h 64% 0 mm
16:09 25.9 °C 18.8 °C 1010.7 hPa SW 14.5 km/h 29 km/h 65% 0 mm
16:14 26 °C 19.2 °C 1010.4 hPa SW 12.9 km/h 33.8 km/h 66% 0 mm
16:19 26.3 °C 19.4 °C 1010.4 hPa SW 14.5 km/h 33.8 km/h 66% 0 mm
16:24 26.4 °C 19.6 °C 1010.4 hPa SW 14.5 km/h 27.4 km/h 66% 0 mm
16:29 26.9 °C 20 °C 1010.7 hPa WSW 12.9 km/h 27.4 km/h 66% 0 mm
16:34 27.4 °C 20.3 °C 1010.7 hPa WSW 8 km/h 16.1 km/h 65% 0 mm
16:39 27.2 °C 19.8 °C 1010.7 hPa SW 6.4 km/h 24.1 km/h 64% 0 mm
16:44 26.9 °C 20 °C 1010.7 hPa WSW 11.3 km/h 29 km/h 66% 0 mm
16:49 27 °C 20.1 °C 1010.7 hPa SW 11.3 km/h 25.7 km/h 66% 0 mm
16:54 26.9 °C 20 °C 1010.4 hPa SW 11.3 km/h 24.1 km/h 66% 0 mm
16:59 26.8 °C 19.9 °C 1010.4 hPa WSW 6.4 km/h 25.7 km/h 66% 0 mm
17:04 26.8 °C 19.9 °C 1010.4 hPa WSW 12.9 km/h 25.7 km/h 66% 0 mm
17:09 26.9 °C 20 °C 1010.4 hPa WSW 11.3 km/h 27.4 km/h 66% 0 mm
17:14 26.7 °C 20.1 °C 1010.4 hPa WSW 11.3 km/h 29 km/h 67% 0 mm
17:19 26.3 °C 19.9 °C 1010.4 hPa WSW 12.9 km/h 29 km/h 68% 0 mm
17:24 26.4 °C 20.1 °C 1010.4 hPa WSW 12.9 km/h 32.2 km/h 68% 0 mm
17:29 26.7 °C 20.1 °C 1010.4 hPa WSW 11.3 km/h 32.2 km/h 67% 0 mm
17:34 26.8 °C 20.1 °C 1010.4 hPa WSW 11.3 km/h 24.1 km/h 67% 0 mm
17:39 26.7 °C 20.1 °C 1010.4 hPa WSW 20.9 km/h 20.9 km/h 67% 0 mm
17:44 26.5 °C 20.1 °C 1010.4 hPa WNW 8 km/h 22.5 km/h 68% 0 mm
17:49 26.4 °C 20.1 °C 1010.4 hPa WSW 8 km/h 25.7 km/h 68% 0 mm
17:54 26.6 °C 20.4 °C 1010.4 hPa SW 9.7 km/h 16.1 km/h 69% 0 mm
17:59 26.7 °C 20.6 °C 1010.4 hPa WSW 14.5 km/h 19.3 km/h 69% 0 mm
18:04 27.1 °C 20.4 °C 1010.4 hPa WSW 8 km/h 24.1 km/h 67% 0 mm
18:09 27.1 °C 20.2 °C 1010.4 hPa SW 11.3 km/h 25.7 km/h 66% 0 mm
18:14 26.9 °C 20.1 °C 1010.4 hPa SW 11.3 km/h 25.7 km/h 66% 0 mm
18:19 26.6 °C 19.7 °C 1010.4 hPa WSW 11.3 km/h 22.5 km/h 66% 0 mm
18:24 26.4 °C 19.6 °C 1010.4 hPa WSW 9.7 km/h 22.5 km/h 66% 0 mm
18:29 26.3 °C 19.7 °C 1010.4 hPa WSW 9.7 km/h 20.9 km/h 67% 0 mm
18:34 26.3 °C 19.7 °C 1010.4 hPa WSW 9.7 km/h 20.9 km/h 67% 0 mm
18:44 26 °C 19.4 °C 1010.4 hPa West 9.7 km/h 24.1 km/h 67% 0 mm
18:49 25.9 °C 19.6 °C 1010 hPa SW 9.7 km/h 27.4 km/h 68% 0 mm
18:54 25.8 °C 19.7 °C 1010 hPa WSW 8 km/h 24.1 km/h 69% 0 mm
18:59 25.7 °C 19.6 °C 1010 hPa SW 9.7 km/h 17.7 km/h 69% 0 mm
19:04 25.6 °C 19.4 °C 1010 hPa SW 8 km/h 19.3 km/h 69% 0 mm
19:09 25.4 °C 19.6 °C 1010 hPa SW 9.7 km/h 20.9 km/h 70% 0 mm
19:14 25.4 °C 19.5 °C 1010 hPa SW 9.7 km/h 22.5 km/h 70% 0 mm
19:19 25.4 °C 19.5 °C 1010 hPa WSW 11.3 km/h 22.5 km/h 70% 0 mm
19:24 25.4 °C 19.5 °C 1010 hPa WSW 9.7 km/h 20.9 km/h 70% 0 mm
19:29 25.3 °C 19.4 °C 1010 hPa WSW 8 km/h 20.9 km/h 70% 0 mm
19:34 25.2 °C 19.6 °C 1009.7 hPa SW 3.2 km/h 12.9 km/h 71% 0 mm
19:39 25 °C 19.6 °C 1009.7 hPa SW 6.4 km/h 16.1 km/h 72% 0 mm
19:44 24.9 °C 19.5 °C 1010 hPa SW 6.4 km/h 16.1 km/h 72% 0 mm
19:49 24.8 °C 19.7 °C 1010 hPa SW 8 km/h 19.3 km/h 73% 0 mm
19:54 24.8 °C 19.6 °C 1010 hPa SW 8 km/h 19.3 km/h 73% 0 mm
19:59 24.7 °C 19.7 °C 1009.7 hPa WSW 4.8 km/h 12.9 km/h 74% 0 mm
20:04 24.6 °C 19.7 °C 1009.7 hPa SW 9.7 km/h 12.9 km/h 74% 0 mm
20:09 24.6 °C 19.6 °C 1009.7 hPa WSW 4.8 km/h 12.9 km/h 74% 0 mm
20:14 24.5 °C 19.6 °C 1009.7 hPa SW 4.8 km/h 12.9 km/h 74% 0 mm
20:19 24.6 °C 19.6 °C 1009.7 hPa SW 1.6 km/h 9.7 km/h 74% 0 mm
20:24 24.5 °C 19.6 °C 1009.7 hPa SW 1.6 km/h 8 km/h 74% 0 mm
20:29 24.3 °C 19.6 °C 1009.7 hPa WSW 3.2 km/h 12.9 km/h 75% 0 mm
20:34 24.2 °C 19.5 °C 1009.7 hPa SW 4.8 km/h 12.9 km/h 75% 0 mm
20:39 24.1 °C 19.6 °C 1009.7 hPa SW 1.6 km/h 16.1 km/h 76% 0 mm
20:44 23.9 °C 19.6 °C 1009.7 hPa SW 4.8 km/h 16.1 km/h 77% 0 mm
20:49 23.7 °C 19.7 °C 1009.7 hPa SW 4.8 km/h 12.9 km/h 78% 0 mm
20:54 23.6 °C 19.6 °C 1009.7 hPa SSW 3.2 km/h 12.9 km/h 78% 0 mm
20:59 23.6 °C 19.5 °C 1009.4 hPa SSW 3.2 km/h 8 km/h 78% 0 mm
21:04 23.6 °C 19.5 °C 1009.7 hPa SW 3.2 km/h 8 km/h 78% 0 mm
21:09 23.5 °C 19.4 °C 1009.7 hPa SSW 3.2 km/h 4.8 km/h 78% 0 mm
21:14 23.4 °C 19.4 °C 1009.4 hPa SW 3.2 km/h 6.4 km/h 78% 0 mm
21:19 23.5 °C 19.4 °C 1009.4 hPa SW 1.6 km/h 6.4 km/h 78% 0 mm
21:24 23.5 °C 19.4 °C 1009.4 hPa SW 4.8 km/h 6.4 km/h 78% 0 mm
21:29 23.5 °C 19.4 °C 1009.4 hPa SSW 4.8 km/h 8 km/h 78% 0 mm
21:34 23.4 °C 19.3 °C 1009.4 hPa SSW 3.2 km/h 4.8 km/h 78% 0 mm
21:39 23.3 °C 19.3 °C 1009.4 hPa SSW 1.6 km/h 4.8 km/h 78% 0 mm
21:44 23.3 °C 19.4 °C 1009.4 hPa SSW 1.6 km/h 4.8 km/h 79% 0 mm
21:49 23.2 °C 19.4 °C 1009.4 hPa Calm   4.8 km/h 79% 0 mm
21:54 23.1 °C 19.3 °C 1009.4 hPa Calm   3.2 km/h 79% 0 mm
21:59 23 °C 19.2 °C 1009.4 hPa Calm     79% 0 mm
22:04 22.9 °C 19.3 °C 1009.4 hPa Calm     80% 0 mm
22:09 22.9 °C 19.3 °C 1009.4 hPa Calm   3.2 km/h 80% 0 mm
22:14 23 °C 19.2 °C 1009.4 hPa Calm   4.8 km/h 79% 0 mm
22:19 23.1 °C 19.3 °C 1009.4 hPa SSW 1.6 km/h 3.2 km/h 79% 0 mm
22:24 23.3 °C 19.4 °C 1009.4 hPa Calm   3.2 km/h 79% 0 mm
22:29 23.3 °C 19.5 °C 1009.4 hPa South 1.6 km/h 4.8 km/h 79% 0 mm
22:34 23.4 °C 19.6 °C 1009 hPa South 1.6 km/h 3.2 km/h 79% 0 mm
22:39 23.5 °C 19.7 °C 1009 hPa South 1.6 km/h 6.4 km/h 79% 0 mm
22:44 23.7 °C 19.8 °C 1009 hPa South 3.2 km/h 8 km/h 79% 0 mm
22:49 23.8 °C 19.9 °C 1008.7 hPa South 3.2 km/h 9.7 km/h 79% 0 mm
22:54 24 °C 20.1 °C 1008.7 hPa SSW 8 km/h 11.3 km/h 79% 0 mm
22:59 24.2 °C 20.2 °C 1008.7 hPa SSW 4.8 km/h 9.7 km/h 78% 0 mm
23:04 24.4 °C 20.1 °C 1008.4 hPa SSW 8 km/h 11.3 km/h 77% 0 mm
23:09 24.4 °C 20.1 °C 1008.4 hPa SSW 3.2 km/h 11.3 km/h 77% 0 mm
23:14 24.4 °C 20.3 °C 1008.7 hPa SSW 3.2 km/h 9.7 km/h 78% 0 mm
23:19 24.5 °C 20.2 °C 1008.7 hPa SSE 4.8 km/h 8 km/h 77% 0 mm
23:24 24.7 °C 20.4 °C 1008.7 hPa SSW 11.3 km/h 16.1 km/h 77% 0 mm
23:29 24.9 °C 20.6 °C 1008.7 hPa SSW 3.2 km/h 19.3 km/h 77% 0 mm
23:34 25.1 °C 20.6 °C 1008.4 hPa SSW 6.4 km/h 19.3 km/h 76% 0 mm
23:39 25.2 °C 20.7 °C 1008.4 hPa SW 4.8 km/h 12.9 km/h 76% 0 mm
23:44 25.3 °C 20.6 °C 1008.4 hPa SSW 8 km/h 16.1 km/h 75% 0 mm
23:49 25.4 °C 20.6 °C 1008.4 hPa SSW 8 km/h 19.3 km/h 75% 0 mm
23:54 25.4 °C 20.6 °C 1008 hPa SSW 11.3 km/h 17.7 km/h 75% 0 mm
23:59 25.4 °C 20.6 °C 1008 hPa SW 4.8 km/h 19.3 km/h 75% 0 mm
Buffalo, New York, USA
Compliments of Weather Underground - 2.5 mb